7 * 24
多渠道服务支持
STARLINK-11402是美国SpaceX公司星链(Starlink)卫星互联网星座的一员,于2024年11月9日发射入轨。星链项目旨在通过大规模低轨道卫星组网,为全球提供高速低延迟互联网接入,尤其覆盖地面网络难以抵达的偏远区域。STARLINK-11402运行在近地轨道,参与构建全球卫星通信网络,助力缩小数字鸿沟,同时星链也被应用于应急通信等领域,不过大规模低轨卫星部署也引发天文观测与太空安全等争议。
美国
(US)
| 数据来源 | 国际轨道数据 |
| 星历时间: | 2026-09-10T07:19:41+0800 1天前 查看轨道信息 |
| 半长轴: | 6737.877km |
| 偏心率: | 0.0001223 |
| 轨道倾角: | 53.161° |
| 近地点辐角 | 66.266° |
| 升交点赤经 | 168.180° |
| 平近点角 | 293.849° |
| 近地点: | 358.915km |
| 远地点: | 360.565km |
| 周期: | 91.737分钟 |
| 每日圈数: | 15.697057 |